Overview Statistics Trail Chart Weather Telemetry Raw packets
 

This is the latest recevied weather packets stored in our database for station/object K0SNA. If no packets are shown the sender has not sent any weather packets the latest 10 day(s).

<< 2 3 4 5 6 7 8 >>
Time Temp. Humidity Pressure Rain* Wind** Luminosity Snow
1788550575 28.89° C 73% 1012.8 hPa 0 mm - 545 W/m² -
1788550271 28.89° C 72% 1012.8 hPa 0 mm - 548 W/m² -
1788549966 28.89° C 74% 1012.6 hPa 0 mm - 550 W/m² -
1788549662 28.89° C 74% 1012.8 hPa 0 mm - 559 W/m² -
1788549358 28.33° C 75% 1012.6 hPa 0 mm - 564 W/m² -
1788549054 28.33° C 74% 1012.9 hPa 0 mm - 554 W/m² -
1788548750 28.33° C 75% 1012.9 hPa 0 mm - 607 W/m² -
1788548446 28.33° C 75% 1012.8 hPa 0 mm - 627 W/m² -
1788548142 27.78° C 77% 1012.9 hPa 0 mm - 269 W/m² -
1788547836 27.78° C 77% 1012.9 hPa 0 mm - 368 W/m² -
1788547531 27.22° C 78% 1012.9 hPa 0 mm - 453 W/m² -
1788547226 27.22° C 78% 1012.9 hPa 0 mm - 347 W/m² -
1788546921 27.22° C 78% 1013.1 hPa 0 mm - 323 W/m² -
1788546616 27.22° C 79% 1013 hPa 0 mm - 558 W/m² -
1788546312 27.22° C 78% 1013 hPa 0 mm - 583 W/m² -
1788546012 27.22° C 79% 1012.9 hPa 0 mm - 357 W/m² -
1788545708 27.78° C 78% 1012.7 hPa 0 mm - 423 W/m² -
1788545402 27.78° C 77% 1012.7 hPa 0 mm - 367 W/m² -
1788545102 28.33° C 77% 1012.9 hPa 0 mm - 348 W/m² -
1788544796 28.33° C 77% 1012.8 hPa 0 mm - 463 W/m² -
1788544496 27.78° C 77% 1012.7 hPa 0 mm - 649 W/m² -
1788544190 27.78° C 78% 1012.6 hPa 0 mm - 620 W/m² -
1788543885 27.78° C 77% 1012.6 hPa 0 mm - 478 W/m² -
1788543582 27.78° C 78% 1012.7 hPa 0 mm - 582 W/m² -
1788543282 27.78° C 77% 1012.6 hPa 0 mm - 587 W/m² -

* Rain latest hour (hover to see other rain measurements)
** Current wind speed in m/s (hover to see current wind gust speed)